Location: *
(49.4547°N, 7.9131°E)
Time: 22:34:12
(UTC+00:00)

H-2A R/B - Pass Details

Date: 22 September 2019
Orbit: 734 x 836 km, 98.3° (Epoch: 21 October)

Event Time Altitude Azimuth Distance (km) Brightness Sun altitude
Exits shadow 18:40:24 14° 135° (SE) 2,022 3.7 -12.6°
Maximum altitude 18:44:27 44° 67° (ENE) 1,049 2.4 -13.2°
Drops below altitude 10° 18:49:16 10° 357° (N) 2,324 4.8 -14.0°
Sets 18:51:42 0° 351° (N) 3,272 5.6 -14.3°
